Radiation Dose at Monitoring Post of Fukushima Daini Nuclear Power Station
Date,Time,MP-1(microSv/h),MP-2(microSv/h),MP-3(microSv/h),MP-4(microSv/h),MP-5(microSv/h),MP-6(microSv/h),MP-7(microSv/h),Wind Direction,Wind Velocity(m/s),Rain
2021/07/31,00:00,0.160,0.146,0.235,0.224,0.230,0.125,0.079,-,CALM,No
2021/07/31,00:10,0.158,0.147,0.233,0.226,0.228,0.124,0.079,-,CALM,No
2021/07/31,00:20,0.160,0.148,0.232,0.228,0.229,0.125,0.079,-,CALM,No
2021/07/31,00:30,0.160,0.147,0.235,0.225,0.231,0.124,0.079,-,CALM,No
2021/07/31,00:40,0.158,0.148,0.234,0.226,0.229,0.124,0.078,-,CALM,No
2021/07/31,00:50,0.160,0.147,0.232,0.225,0.228,0.125,0.079,-,CALM,No
2021/07/31,01:00,0.161,0.148,0.234,0.225,0.231,0.124,0.079,north,0.7,No
2021/07/31,01:10,0.159,0.147,0.233,0.226,0.229,0.124,0.079,-,CALM,No
2021/07/31,01:20,0.161,0.148,0.234,0.226,0.229,0.125,0.078,north-northwest,0.7,No
2021/07/31,01:30,0.160,0.147,0.234,0.224,0.231,0.125,0.078,northwest,0.9,No
2021/07/31,01:40,0.158,0.147,0.232,0.228,0.228,0.124,0.079,north-northwest,0.8,No
2021/07/31,01:50,0.160,0.147,0.234,0.226,0.230,0.125,0.079,north-northwest,1.3,No
2021/07/31,02:00,0.160,0.148,0.235,0.226,0.231,0.124,0.079,north-northwest,0.9,No
2021/07/31,02:10,0.157,0.147,0.232,0.228,0.229,0.124,0.079,northwest,0.7,No
2021/07/31,02:20,0.162,0.147,0.234,0.224,0.231,0.125,0.079,north-northwest,1.2,No
2021/07/31,02:30,0.160,0.148,0.232,0.226,0.230,0.125,0.079,northwest,0.8,No
2021/07/31,02:40,0.159,0.147,0.234,0.227,0.229,0.125,0.080,northwest,1.4,No
2021/07/31,02:50,0.160,0.148,0.233,0.225,0.231,0.125,0.080,north-northwest,1.5,No
2021/07/31,03:00,0.159,0.147,0.232,0.228,0.229,0.125,0.078,northwest,1.5,No
2021/07/31,03:10,0.160,0.148,0.235,0.226,0.227,0.125,0.079,north-northwest,2.2,No
2021/07/31,03:20,0.159,0.148,0.233,0.226,0.233,0.125,0.079,northwest,1.8,No
2021/07/31,03:30,0.158,0.148,0.233,0.226,0.230,0.124,0.079,north-northwest,1.3,No
2021/07/31,03:40,0.160,0.148,0.234,0.225,0.229,0.124,0.079,northwest,2.2,No
2021/07/31,03:50,0.160,0.147,0.231,0.226,0.231,0.126,0.079,north-northwest,2.5,No
2021/07/31,04:00,0.159,0.147,0.234,0.226,0.228,0.124,0.079,north-northwest,1.3,No
2021/07/31,04:10,0.160,0.147,0.232,0.224,0.231,0.126,0.079,north-northwest,1.7,No
2021/07/31,04:20,0.160,0.147,0.235,0.227,0.231,0.125,0.078,north-northwest,2.3,No
2021/07/31,04:30,0.158,0.147,0.233,0.224,0.228,0.125,0.079,north,2.6,No
2021/07/31,04:40,0.160,0.146,0.233,0.226,0.232,0.125,0.079,north,1.5,No
2021/07/31,04:50,0.160,0.148,0.234,0.225,0.229,0.125,0.079,-,CALM,No
2021/07/31,05:00,0.160,0.147,0.233,0.225,0.230,0.125,0.079,north-northwest,2.2,No
2021/07/31,05:10,0.160,0.148,0.234,0.226,0.231,0.124,0.079,north-northwest,3.7,No
2021/07/31,05:20,0.159,0.148,0.233,0.225,0.227,0.124,0.080,north-northwest,3.3,No
2021/07/31,05:30,0.160,0.147,0.234,0.227,0.230,0.124,0.079,north-northwest,4.0,No
2021/07/31,05:40,0.159,0.149,0.234,0.226,0.229,0.124,0.079,north-northwest,4.4,No
2021/07/31,05:50,0.159,0.147,0.232,0.225,0.228,0.126,0.080,north,4.3,No
2021/07/31,06:00,0.162,0.148,0.235,0.227,0.232,0.125,0.079,north-northwest,4.2,No
2021/07/31,06:10,0.160,0.149,0.232,0.224,0.229,0.125,0.080,north,4.1,No
2021/07/31,06:20,0.159,0.147,0.233,0.225,0.227,0.126,0.079,north,3.9,No
2021/07/31,06:30,0.161,0.148,0.235,0.226,0.232,0.125,0.079,north-northwest,4.0,No
2021/07/31,06:40,0.159,0.149,0.233,0.225,0.230,0.124,0.079,north-northwest,4.0,No
2021/07/31,06:50,0.160,0.147,0.231,0.224,0.228,0.124,0.079,north-northwest,3.5,No
2021/07/31,07:00,0.159,0.147,0.233,0.227,0.228,0.125,0.079,north-northwest,3.3,No
2021/07/31,07:10,0.161,0.147,0.234,0.227,0.232,0.124,0.078,north-northwest,3.7,No
2021/07/31,07:20,0.160,0.147,0.232,0.224,0.230,0.125,0.078,north-northwest,3.2,No
2021/07/31,07:30,0.158,0.148,0.232,0.223,0.228,0.124,0.079,north,2.6,No
2021/07/31,07:40,0.159,0.146,0.231,0.223,0.227,0.125,0.078,north-northeast,3.6,No
2021/07/31,07:50,0.160,0.146,0.231,0.225,0.227,0.125,0.078,north-northeast,3.2,No
2021/07/31,08:00,0.160,0.146,0.233,0.227,0.229,0.125,0.079,north,3.0,No
2021/07/31,08:10,0.159,0.147,0.234,0.225,0.231,0.124,0.078,north-northeast,4.4,No
2021/07/31,08:20,0.158,0.147,0.232,0.224,0.230,0.124,0.078,north-northeast,4.8,No
2021/07/31,08:30,0.158,0.147,0.231,0.223,0.228,0.124,0.078,north-northeast,4.9,No
2021/07/31,08:40,0.160,0.147,0.231,0.221,0.227,0.125,0.078,north,3.9,No
2021/07/31,08:50,0.160,0.146,0.231,0.222,0.228,0.126,0.078,north-northeast,4.3,No
2021/07/31,09:00,0.159,0.147,0.232,0.223,0.228,0.124,0.077,north-northeast,4.4,No
2021/07/31,09:10,0.158,0.146,0.230,0.224,0.227,0.124,0.078,northeast,4.4,No
2021/07/31,09:20,0.158,0.146,0.231,0.225,0.227,0.124,0.078,north-northeast,3.9,No
2021/07/31,09:30,0.158,0.146,0.233,0.224,0.227,0.124,0.079,northeast,4.3,No
2021/07/31,09:40,0.158,0.146,0.232,0.225,0.229,0.125,0.078,north-northeast,5.1,No
2021/07/31,09:50,0.158,0.146,0.232,0.225,0.229,0.124,0.078,north,5.1,No
2021/07/31,10:00,0.158,0.145,0.234,0.224,0.230,0.124,0.079,north-northeast,4.9,No
2021/07/31,10:10,0.158,0.146,0.233,0.225,0.229,0.124,0.078,north-northeast,6.2,No
2021/07/31,10:20,0.157,0.146,0.232,0.224,0.229,0.124,0.078,north-northeast,5.4,No
2021/07/31,10:30,0.159,0.147,0.232,0.226,0.228,0.124,0.079,north,5.4,No
2021/07/31,10:40,0.158,0.146,0.232,0.226,0.229,0.124,0.078,north-northeast,6.1,No
2021/07/31,10:50,0.159,0.147,0.232,0.225,0.231,0.125,0.079,north-northeast,5.6,No
2021/07/31,11:00,0.157,0.148,0.234,0.225,0.230,0.125,0.079,north-northeast,6.2,No
2021/07/31,11:10,0.158,0.147,0.233,0.226,0.230,0.125,0.079,north-northeast,7.0,No
2021/07/31,11:20,0.158,0.147,0.233,0.226,0.230,0.125,0.077,north-northeast,6.1,No
2021/07/31,11:30,0.158,0.147,0.233,0.227,0.230,0.125,0.079,north-northeast,6.5,No
2021/07/31,11:40,0.159,0.147,0.233,0.225,0.230,0.124,0.079,north,6.9,No
2021/07/31,11:50,0.158,0.148,0.233,0.226,0.229,0.125,0.079,north,7.9,No
2021/07/31,12:00,0.158,0.148,0.234,0.226,0.231,0.126,0.079,north,6.5,No
2021/07/31,12:10,0.158,0.148,0.233,0.226,0.231,0.126,0.079,north,7.5,No
2021/07/31,12:20,0.159,0.148,0.233,0.226,0.231,0.126,0.079,north-northeast,7.6,No
2021/07/31,12:30,0.158,0.147,0.235,0.227,0.229,0.125,0.079,north,6.9,No
2021/07/31,12:40,0.159,0.148,0.234,0.227,0.229,0.126,0.079,north-northeast,5.8,No
2021/07/31,12:50,0.158,0.148,0.234,0.227,0.230,0.125,0.079,north,7.0,No
2021/07/31,13:00,0.159,0.148,0.234,0.226,0.231,0.124,0.079,north,6.1,No
2021/07/31,13:10,0.159,0.148,0.234,0.228,0.230,0.126,0.079,north,6.4,No
2021/07/31,13:20,0.160,0.147,0.234,0.228,0.229,0.125,0.078,north-northeast,7.3,No
2021/07/31,13:30,0.160,0.149,0.235,0.228,0.229,0.124,0.079,north-northeast,8.4,No
2021/07/31,13:40,0.159,0.148,0.236,0.227,0.228,0.124,0.079,north-northeast,6.9,No
2021/07/31,13:50,0.160,0.149,0.235,0.227,0.230,0.125,0.079,north-northeast,8.5,No
2021/07/31,14:00,0.159,0.148,0.236,0.227,0.231,0.127,0.080,north-northeast,7.4,No
2021/07/31,14:10,0.160,0.148,0.235,0.228,0.230,0.126,0.080,north,7.1,No
2021/07/31,14:20,0.159,0.147,0.234,0.227,0.230,0.125,0.078,north,6.8,No
2021/07/31,14:30,0.159,0.148,0.235,0.227,0.229,0.125,0.079,north,9.5,No
2021/07/31,14:40,0.161,0.148,0.233,0.228,0.230,0.125,0.079,north,9.2,No
2021/07/31,14:50,0.162,0.148,0.234,0.227,0.230,0.125,0.078,north,8.6,No
2021/07/31,15:00,0.161,0.148,0.233,0.225,0.230,0.125,0.078,north,7.2,Yes
2021/07/31,15:10,0.160,0.149,0.233,0.226,0.229,0.124,0.078,north-northwest,7.0,Yes
2021/07/31,15:20,0.160,0.148,0.236,0.225,0.229,0.125,0.079,north-northwest,7.5,Yes
2021/07/31,15:30,0.161,0.147,0.235,0.229,0.232,0.126,0.079,north,8.1,Yes
2021/07/31,15:40,0.161,0.148,0.233,0.228,0.232,0.125,0.080,north-northwest,7.2,Yes
2021/07/31,15:50,0.159,0.147,0.235,0.226,0.229,0.125,0.078,north-northwest,6.2,Yes
2021/07/31,16:00,0.161,0.147,0.235,0.226,0.228,0.124,0.079,north,6.4,Yes
2021/07/31,16:10,0.160,0.147,0.231,0.226,0.233,0.126,0.079,north-northwest,6.0,Yes
2021/07/31,16:20,0.158,0.148,0.233,0.224,0.230,0.124,0.079,north-northwest,5.6,Yes
2021/07/31,16:30,0.160,0.147,0.234,0.224,0.226,0.125,0.079,north,5.5,Yes
2021/07/31,16:40,0.159,0.147,0.232,0.226,0.230,0.124,0.079,north-northwest,5.5,Yes
2021/07/31,16:50,0.158,0.148,0.232,0.224,0.229,0.125,0.079,north-northwest,7.1,Yes
2021/07/31,17:00,0.158,0.148,0.232,0.222,0.227,0.125,0.079,north-northwest,6.3,Yes
2021/07/31,17:10,0.160,0.147,0.231,0.225,0.227,0.124,0.079,north,6.5,Yes
2021/07/31,17:20,0.158,0.147,0.230,0.223,0.230,0.125,0.080,north-northwest,6.7,Yes
2021/07/31,17:30,0.157,0.145,0.232,0.222,0.227,0.125,0.078,north-northwest,4.4,Yes
2021/07/31,17:40,0.159,0.146,0.230,0.223,0.225,0.124,0.079,north-northwest,5.3,Yes
2021/07/31,17:50,0.158,0.148,0.229,0.224,0.230,0.123,0.079,north-northwest,5.1,Yes
2021/07/31,18:00,0.157,0.145,0.232,0.222,0.227,0.124,0.079,north-northwest,3.6,Yes
2021/07/31,18:10,0.159,0.146,0.230,0.222,0.226,0.123,0.078,north,3.9,Yes
2021/07/31,18:20,0.158,0.146,0.227,0.223,0.228,0.123,0.079,north,4.4,Yes
2021/07/31,18:30,0.156,0.146,0.231,0.222,0.228,0.124,0.079,north-northwest,5.0,Yes
2021/07/31,18:40,0.158,0.146,0.229,0.221,0.225,0.124,0.078,north,5.4,Yes
2021/07/31,18:50,0.158,0.147,0.227,0.223,0.227,0.123,0.078,north,5.3,Yes
2021/07/31,19:00,0.157,0.144,0.230,0.221,0.227,0.123,0.078,north-northwest,4.5,Yes
2021/07/31,19:10,0.157,0.144,0.229,0.219,0.224,0.124,0.077,north-northwest,4.8,Yes
2021/07/31,19:20,0.158,0.146,0.226,0.222,0.227,0.123,0.078,north-northwest,4.9,Yes
2021/07/31,19:30,0.156,0.144,0.229,0.220,0.228,0.122,0.078,north,4.6,Yes
2021/07/31,19:40,0.156,0.145,0.228,0.218,0.225,0.123,0.078,north,3.2,Yes
2021/07/31,19:50,0.157,0.146,0.226,0.221,0.225,0.122,0.078,north,6.5,Yes
2021/07/31,20:00,0.155,0.145,0.228,0.220,0.227,0.121,0.078,north,6.6,Yes
2021/07/31,20:10,0.156,0.145,0.226,0.218,0.225,0.122,0.077,north,5.0,Yes
2021/07/31,20:20,0.158,0.145,0.225,0.221,0.224,0.122,0.078,north,5.5,Yes
2021/07/31,20:30,0.156,0.143,0.228,0.220,0.226,0.121,0.078,north-northwest,4.9,Yes
2021/07/31,20:40,0.155,0.144,0.225,0.219,0.225,0.122,0.077,north,5.8,Yes
2021/07/31,20:50,0.157,0.145,0.224,0.219,0.222,0.122,0.077,north,6.1,Yes
2021/07/31,21:00,0.156,0.144,0.226,0.219,0.226,0.121,0.077,north-northwest,5.2,Yes
2021/07/31,21:10,0.155,0.143,0.225,0.217,0.225,0.121,0.077,north-northwest,4.4,Yes
2021/07/31,21:20,0.156,0.145,0.223,0.219,0.223,0.122,0.078,north,4.6,Yes
2021/07/31,21:30,0.155,0.143,0.225,0.218,0.225,0.121,0.078,north,6.4,Yes
2021/07/31,21:40,0.154,0.143,0.224,0.216,0.225,0.120,0.076,north,5.6,Yes
2021/07/31,21:50,0.155,0.144,0.224,0.218,0.223,0.121,0.077,north,5.6,Yes
2021/07/31,22:00,0.155,0.143,0.226,0.219,0.224,0.121,0.078,north,5.1,Yes
2021/07/31,22:10,0.154,0.144,0.223,0.216,0.226,0.120,0.077,north-northwest,4.3,Yes
2021/07/31,22:20,0.156,0.145,0.224,0.216,0.224,0.120,0.076,north-northwest,4.3,Yes
2021/07/31,22:30,0.154,0.143,0.224,0.218,0.223,0.122,0.078,north-northwest,6.3,Yes
2021/07/31,22:40,0.154,0.143,0.223,0.215,0.225,0.120,0.078,north,6.7,Yes
2021/07/31,22:50,0.155,0.143,0.224,0.216,0.225,0.120,0.076,north,6.6,Yes
2021/07/31,23:00,0.156,0.142,0.224,0.218,0.222,0.121,0.078,north,5.3,Yes
2021/07/31,23:10,0.154,0.144,0.222,0.215,0.225,0.120,0.078,north-northwest,4.9,Yes
2021/07/31,23:20,0.155,0.144,0.225,0.217,0.222,0.120,0.077,north-northwest,5.5,Yes
2021/07/31,23:30,0.154,0.143,0.223,0.218,0.223,0.120,0.077,north-northwest,5.1,Yes
2021/07/31,23:40,0.153,0.144,0.223,0.217,0.226,0.120,0.077,northwest,5.1,No
2021/07/31,23:50,0.155,0.144,0.226,0.218,0.224,0.119,0.076,north-northwest,6.1,No
